Location: Althornbach
(49.2041°N, 7.3756°E)
Time: 22:38:39
(UTC+00:00)

Daily predictions for brighter satellites

Satellite Brightness Start Highest point End
(mag) Time Altitude Azimuth Time Altitude Azimuth Time Altitude Azimuth
Nadezhda 4 Rocket 4.5 17:46:24 10° N 17:52:05 38° ENE 17:57:45 10° SE
Ariane Rocket 4.2 17:49:56 10° ESE 17:53:51 23° ENE 17:57:47 10° N
H-2A R/B 2.4 17:49:48 10° SE 17:54:32 44° ENE 17:59:26 10° N
SJ 16-02 3.7 17:52:04 10° WSW 17:55:47 27° WNW 17:59:32 10° N
Cosmos 2263 Rocket 3.0 17:53:35 10° SW 17:59:03 57° NW 18:04:36 10° NNE
USA 116 4.1 17:56:15 10° NNE 17:59:43 39° E 18:03:35 10° S
COSMOS 2406 4.4 17:56:19 10° NNW 18:01:00 26° NE 18:05:40 10° E
Cosmos 1939 Rocket 3.8 17:58:26 10° S 18:02:30 55° W 18:06:36 10° NNW
Cosmos 1844 Rocket 3.0 17:58:23 10° S 18:03:34 41° ESE 18:08:48 10° NE
Cosmos 1707 2.6 18:00:46 10° N 18:04:37 77° E 18:08:26 10° SSE
Cosmos 372 Rocket 4.0 18:00:11 10° SSW 18:05:24 73° ESE 18:10:37 10° NNE
Cosmos 1626 4.1 18:04:02 10° NE 18:05:50 13° ENE 18:07:28 10° E
NOSS 3-2 (C) 4.1 17:58:54 10° NW 18:06:14 72° NE 18:14:37 10° SE
Cosmos 1844 4.1 18:05:49 10° S 18:11:02 39° ESE 18:16:13 10° NE
ISS -3.7 18:08:05 10° WSW 18:11:28 81° NNW 18:14:49 10° ENE
Cosmos 2034 Rocket 4.3 18:05:32 10° SSE 18:11:31 46° E 18:17:30 10° NNE
NOSS 3-4 (A) 4.4 18:07:55 10° SSE 18:12:30 24° ESE 18:17:16 10° ENE
NOSS 3-4 (C) 4.4 18:08:03 10° SSE 18:12:36 23° ESE 18:17:21 10° ENE
USA 186 3.1 18:11:03 10° ESE 18:13:33 22° ENE 18:16:10 10° NNE
Lacrosse 4 Rocket 3.5 18:12:04 10° N 18:14:05 13° NNE 18:16:05 10° ENE
Meteor 1-12 Rocket 4.3 18:09:01 10° S 18:14:49 66° E 18:20:33 10° NNE
Cosmos 1300 Rocket 3.5 18:15:43 10° S 18:20:06 69° E 18:24:33 10° NNE
Okean 1 Rocket 4.0 18:19:39 10° SSE 18:23:26 28° E 18:27:15 10° NNE
Sich 1 Rocket 4.0 18:19:57 10° SSW 18:24:28 71° WNW 18:29:03 10° N
CENTAUR R/B 3.2 18:17:20 10° NW 18:25:19 83° NE 18:34:09 10° SE
NOSS 2-2 (E) 4.3 18:22:02 10° WSW 18:25:29 45° NW 18:29:35 10° NE
Cosmos 1833 Rocket 3.8 18:21:44 10° NNW 18:26:36 28° NE 18:30:11 15° E
Cosmos 2298 Rocket 4.0 18:21:22 10° SSW 18:26:41 75° ESE 18:32:01 10° NNE
Resurs 01 Rocket 3.5 18:25:52 13° ENE 18:27:14 14° ENE 18:29:35 10° NNE
CSL-04 Debris 4.3 18:25:16 10° SSE 18:30:40 79° WSW 18:36:05 10° NNW
CSL-04 Rocket 3.8 18:27:09 10° SSE 18:32:36 80° WSW 18:38:11 10° NNW
Cosmos 1025 Rocket 3.2 18:29:37 10° NNW 18:34:01 77° W 18:38:24 10° S
Cosmos 1766 4.2 18:31:04 10° SSE 18:34:25 27° E 18:37:48 10° NNE
Okean 2 Rocket 3.2 18:30:10 10° S 18:34:40 85° WNW 18:39:09 10° N
ATLAS 2AS CENTAUR R/B 3.5 18:27:48 10° S 18:34:53 37° ESE 18:41:58 10° NE
YAOGAN 1 3.7 18:31:06 10° S 18:35:17 47° W 18:39:30 10° NNW
NOSS 2-2 (D) 4.2 18:31:54 10° WSW 18:35:21 46° NW 18:39:21 10° NE
ATLAS 3B R/B 3.2 18:31:04 10° NW 18:37:36 46° NE 18:42:35 18° ESE
Abrixas rocket 2.6 18:38:15 10° W 18:40:58 42° SSW 18:42:11 25° SE
CREW DRAGON DEMO-1 DEB 3.3 18:39:51 10° WNW 18:42:49 52° SSW 18:44:16 25° SE
Cosmos 1536 Rocket 3.7 18:39:20 10° NNW 18:43:48 81° W 18:48:16 10° S
Cosmos 1125 Rocket 3.4 18:42:02 10° SSW 18:47:19 71° ESE 18:52:38 10° NNE
SJ-6B 3.0 18:48:31 23° SE 18:50:29 46° ENE 18:54:09 10° N
CZ-4 R/B 3.8 18:49:28 10° SSW 18:53:02 26° W 18:56:34 10° NW
Cosmos 2150 Rocket 4.3 18:48:54 10° SSW 18:54:18 74° WNW 18:59:47 10° NNE
USA 238 4.5 18:47:36 10° NW 18:54:36 55° WSW 19:01:51 10° SSE
CZ-2C R/B 4.2 18:49:50 10° S 18:55:03 50° W 19:00:34 10° NNW
Cosmos 1464 Rocket 4.4 18:49:33 10° SSW 18:55:39 68° WNW 19:01:51 10° N
Cosmos 1674 2.7 18:52:21 10° N 18:56:13 84° W 19:00:02 10° S
Cosmos 2026 Rocket 4.1 18:50:39 10° N 18:56:56 55° ENE 19:02:16 14° SSE
Cosmos 1092 Rocket 3.9 18:50:59 10° N 18:57:10 70° ENE 19:03:21 10° SSE
Cosmos 2285 Rocket 3.9 18:51:48 10° S 18:58:03 70° ESE 19:04:24 10° NNE
MOS 1 Rocket 3.2 18:58:07 10° N 19:02:32 75° WNW 19:06:47 10° SSW
FREGAT/IRIS 2.6 19:04:41 49° NNE 19:04:41 49° NNE 19:06:50 10° N
TSX-5 4.1 19:05:22 10° SSW 19:09:10 54° ESE 19:14:02 10° NE
ARGOS 3.7 19:05:17 10° S 19:10:34 60° W 19:15:55 10° NNW
CZ-2C R/B 2.7 19:07:13 10° NNE 19:12:46 65° ESE 19:18:21 10° S
Cosmos 1340 Rocket 3.1 19:15:11 43° E 19:15:11 43° E 19:18:40 10° NNE
Cosmos 2279 Rocket 4.4 19:12:59 26° SE 19:15:49 40° E 19:21:36 10° NNE
Cosmos 1733 3.0 19:13:48 18° S 19:16:31 71° E 19:20:21 10° NNE
MOS 1 4.2 19:13:05 15° SSE 19:17:55 89° ENE 19:23:41 10° NNW
GRACE-FO 1 4.5 19:14:33 10° N 19:18:16 71° E 19:19:03 51° SSE
GRACE-FO 2 4.5 19:14:55 10° N 19:18:39 72° E 19:19:25 52° SSE
Lacrosse 5 rocket 2.7 19:15:03 10° NW 19:19:05 34° NNE 19:20:43 26° NE
Cosmos 2082 Rocket 2.9 19:14:34 10° NNW 19:19:49 38° NE 19:21:17 32° E
DMSP B5D2-2 4.0 19:17:19 10° NNE 19:22:38 67° ESE 19:27:52 10° S
BREEZE-M DEB (TANK) 4.4 19:19:49 10° W 19:23:08 33° SSW 19:27:36 20° SSE
BREEZE-M R/B 3.4 19:14:49 10° WSW 19:23:48 71° SSE 19:24:25 55° ESE
OBJECT-B 1.2 19:28:48 56° N 19:28:48 56° N 19:31:30 10° N
Cosmos 1805 3.7 19:24:36 10° SSW 19:28:28 61° WNW 19:32:22 10° N
Cosmos 2142 Rocket 4.5 19:24:37 17° SSE 19:29:27 57° E 19:35:31 10° NNE
Ariane Rocket 3.4 19:28:06 14° S 19:32:25 61° WSW 19:37:28 10° NNW
H-2A R/B 3.9 19:29:50 10° SSW 19:34:09 29° W 19:38:35 10° NNW
Cosmos 1269 Rocket 4.4 19:31:19 10° NNW 19:36:34 61° WSW 19:39:33 25° S
Cosmos 1626 2.6 19:37:49 10° NNW 19:41:29 58° W 19:42:02 51° SW
Terra 4.0 19:42:51 13° NE 19:42:51 13° NE 19:44:15 10° NNE
Okean 1-7 Rocket 3.6 19:37:18 10° N 19:41:50 64° ENE 19:41:50 64° ENE
USA 186 3.9 19:42:35 18° SW 19:44:08 25° W 19:46:57 10° NW
Cosmos 1455 Rocket 4.1 19:47:18 34° NE 19:47:18 34° NE 19:49:56 10° NNE
COSMOS 2406 3.3 19:40:14 10° NNW 19:45:54 74° WSW 19:47:55 41° S
Cosmos 1844 Rocket 4.0 19:42:18 10° WSW 19:47:30 39° NW 19:52:46 10° NNE
SPOT 1/Viking Rocket 4.4 19:48:44 34° NE 19:48:44 34° NE 19:52:54 10° N
ISS -2.6 19:45:10 10° WNW 19:47:46 43° NW 19:47:46 43° NW
Cosmos 2278 Rocket 2.1 19:45:48 10° S 19:51:32 59° ESE 19:56:54 10° NE
Lacrosse 4 Rocket 1.8 19:49:32 10° NNW 19:52:52 52° N 19:52:52 52° N
Meteor 1-22 Rocket 4.5 19:50:04 10° SSW 19:55:59 75° WNW 20:02:07 10° N
Meteor 1-24 Rocket 4.3 19:52:47 10° NNW 19:58:13 55° W 20:01:37 24° SSW
Cosmos 909 Rocket 4.0 19:52:10 10° NW 19:58:45 69° NE 19:59:55 57° ESE
Cosmos 2266 Rocket 4.0 19:54:35 10° N 20:00:30 53° ENE 20:00:33 53° ENE
SL-14 R/B 4.3 19:57:39 10° NNW 20:01:23 41° W 20:01:55 39° WSW
Meteor 2-19 Rocket 4.3 19:56:17 10° N 20:02:27 85° E 20:03:47 57° SSE
NOSS 3-4 (A) 3.5 19:56:41 10° SW 20:02:38 77° NW 20:09:05 10° NE
NOSS 3-4 (C) 3.5 19:56:47 10° SW 20:02:45 78° NW 20:09:11 10° NE
Resurs 01 Rocket 1.7 20:03:26 76° NNW 20:03:26 76° NNW 20:07:34 10° NNW
Cosmos 1833 Rocket 2.9 20:05:22 10° NNW 20:10:58 64° WSW 20:11:54 55° SSW
CZ-2C R/B 4.4 20:06:47 10° NNE 20:09:58 46° NNE 20:09:58 46° NNE
Cosmos 2251 Rocket 3.4 20:08:29 10° NNW 20:13:44 83° NNE 20:13:44 83° NNE
ERS-1 Rocket 4.2 20:17:40 31° NNE 20:17:40 31° NNE 20:20:52 10° N
ARIANE 5 R/B 3.6 20:20:05 42° N 20:20:05 42° N 20:22:59 10° NNW
SPOT 3 Rocket 4.2 20:20:50 43° SW 20:21:50 49° W 20:26:51 10° NNW
ATLAS 2AS CENTAUR R/B 3.2 20:17:35 10° SW 20:25:33 71° NW 20:33:24 10° NE
ATLAS 3B R/B 3.0 20:21:49 10° NW 20:28:32 57° WSW 20:29:50 50° SSW
SPOT 5 4.1 20:33:48 37° NNE 20:33:48 37° NNE 20:37:22 10° N
Meteor 1-21 Rocket 4.3 20:27:49 10° NNW 20:33:15 79° NNW 20:33:15 79° NNW
Cosmos 1655 Rocket 4.1 20:30:54 10° NNW 20:37:09 70° W 20:37:50 64° SW
Cosmos 1461 4.5 20:36:26 10° NNW 20:39:30 37° NNW 20:39:30 37° NNW
Lacrosse 5 rocket 3.5 20:54:14 10° NW 20:56:20 27° NW 20:56:20 27° NW
Cosmos 2082 Rocket 3.2 20:58:41 10° NW 21:03:08 40° W 21:03:08 40° W
Terra 3.9 21:21:45 24° NNW 21:21:45 24° NNW 21:23:38 10° NNW
Cosmos 2278 Rocket 3.9 21:33:00 20° W 21:35:48 30° NW 21:40:46 10° NNE
ATLAS 2AS CENTAUR R/B 4.4 22:10:50 10° W 22:17:53 33° NNW 22:24:43 10° NE
CZ-4C R/B 4.3 22:45:17 24° NNE 22:45:17 24° NNE 22:48:28 10° NE
Cosmos 2297 Rocket 4.4 22:54:09 10° NNW 22:56:26 20° N 22:56:26 20° N
Cosmos 2369 Rocket 4.5 23:10:31 19° NNE 23:10:31 19° NNE 23:12:10 10° NNE
SL-16 R/B 4.2 23:50:37 27° NE 23:50:37 27° NE 23:54:24 10° N
